DELTA 1 DEB, 6214

Orbit data source: Space-Track

DELTA 1 DEB, 6214 is space debris in SSO originally from a launch on Mon, 28 Feb 1966 UTC launched from the Air Force Eastern Test Range (AFETR). Debris objects in space refer to the collection of defunct objects orbiting the Earth. Examples of debris include non-operational satellites, rocket bodies, and fragments generated from explosions, collisions, or faulty payload assembly.

Loading next visibility...
Identifier
6214, 1966-016E
Orbit
SSO
Country
Flag of USUS
Related business
Manufacturer
Unknown
Mission
Spacecraft
Bus & Motor
Unknown
Mass
Unknown
Launch date (UTC)
1966-02-28 (61 years ago)
Launch vehicle
Unknown
Launch site
Air Force Eastern Test Range (AFETR)
Object type
Payload
Rocket body
Debris
Shape & HBR
Unknown shape, 0.1 m
Radar Cross Section
Medium (>0.1 m² and <1 m²)

Expand to show TLE details & history
Last TLE update: 15 hours ago

TLE from 15 hours ago
0 DELTA 1 DEB
1  6214U 66016E   26254.95014029  .00000032  00000-0  42612-3 0  9994
2  6214 101.7677 255.2989 0119629 352.9406  34.0748 12.62821694785873
Epoch: 2026-09-11T22:48Z
TLE epoch observation values (Epoch: 2026-09-11T22:48:12.121Z)
Latitude
27.1991°
Longitude
-83.83276°
Altitude
1,337.52 km
Speed
7.227 km/s
True Right ascension
16h 36m 44s
True Declination
27° 04' 12"
Sunlit
Object was in daylight at epoch
Visualization orbit readout
Latitude
Unknown
Longitude
Unknown
Altitude
Unknown
Speed
Unknown
Apparent Right ascension
Unknown
Apparent Declination
Unknown
Sunlit
N/A
Visualization observer readout
Local Sidereal Time
06:42:09
Azimuth
Unknown
Elevation
Unknown
Doppler factor
Unknown
Orbital elements
Apogee altitude
1,502.005 km
Perigee altitude
1,315.695 km
Semi-major axis
7,786.987 km
Eccentricity
0.01196
Inclination
101.7677°
RAAN
255.2989°
Arg. of periapsis
352.9406°
True anomaly
34.85245°
Mean anomaly
34.0748°
Eccentric anomaly
34.46266°
Mean motion
3.15856 °/min
Orbital period
113.98 mins
BSTAR
0.00042612
Loading maneuver chart data...
Computing Atmospheric mass density...
Loading historical data...
Loading historical data...
Loading historical data...
Loading historical data...
Loading historical data...
Loading historical data...
Loading historical data...
Other satellites on launch #16 in the year 1966 (1966-02-28 UTC)

Documentation

Showing up to 5 results
|